SCP
0 0 0 0 0 0 0 0 0 0 0 0 0 0 0 0 0 0 0 0 0 0 0 0 0 0 0 0 0 0 0 0 0 0 0 0 0 0
0 0 0 0 0 0 0 0 0 0 0 0 0 0 0 0 0 0 0 0 0 0 0 0 0 0 0 0 0 0 0 0 0 0 0 0 0 0
0 0 0 0 0 0 0 0 0 0 0 0 0 0 0 0 0 0 0 0 0 0 0 0 0 0 0 0 0 0 0 0 0 0 0 0 0 0
0 0 0 0 0 0 0 0 0 0 0 0 0 0 0 0 0 0 0 0 0 0 0 0 0 0 0 0 0 0 0 0 0 0 0 0 0 0
0 0 0 0 0 0 0 0 0 0 0 0 0 0 0 0 0 0 0 0 0 0 0 0 0 0 0 0 0 0 0 0 0 0 0 0 0 0
0 0 0 0 0 0 0 0 0 0 0 0 0 0 0 0 0 0 0 0 0 0 0 0 0 0 0 0 0 0 0 0 0 0 0 0 0 0
0 0 0 0 0 0 0 0 0 0 0 0 0 0 0 0 0 0 0 0 0 0 0 0 0 0 0 0 0 0 0 0 0 0 0 0 0 0
0 0 0 0 0 0 0 0 0 0 0 0 0 0 0 0 0 0 0 0 0 0 0 0 0 0 0 0 0 0 0 0 0 0 0 0 0 0
0 0 0 0 0 0 0 0 0 0 0 0 0 0 0 0 0 0 0 0 0 0 0 0 0 0 0 0 0 0 0 0 0 0 0 0 0 0
-0 0 0 0 0 0 0 0 0 0 0 0 0 0 0 0 0 0 0 0 0 0 0 0 0 0 0 0 0 0 0 0 0 0 0 0 0 0
0 0 0 0 0 0 0 0 0 0 0 0 0 0 0 0 0 0 0 0 0 0 0 0 0 0 0 0 0 0 0 0 0 0 0 0 0 0
0 0 0 0 0 0 0 0 0 0 0 0 0 0 0 0 0 0 0 0 0 0 0 0 0 0 0 0 0 0 0 0 0 0 0 0 0 0
0 0 0 0 0 0 0 0 0 0 0 0 0 0 0 0 0 0 0 0 0 0 0 0 0 0 0 0 0 0 0 0 0 0 0 0 0 0
0 0 0 0 0 0 0 0 0 0 0 0 0 0 0 0 0 0 0 0 0 0 0 0 0 0 0 0 0 0 0 0 0 0 0 0 0 0
0 0 0 0 0 0 0 0 0 0 0 0 0 0 0 0 0 0 0 0 0 0 0 0 0 0 0 0 0 0 0 0 0 0 0 0 0 0
0 0 0 0 0 0 0 0 0 0 0 0 0 0 0 0 0 0 0 0 0 0 0 0 0 0 0 0 0 0 0 0 0 0 0 0 0 0
0 0 0 0 0 0 0 0 0 0 0 0 0 0 0 0 0 0 0 0 0 0 0 0 0 0 0 0 0 0 0 0 0 0 0 0 0 0
0 0 0 0 0 0 0 0 0 0 0 0 0 0 0 0 0 0 0 0 0 0 0 0 0 0 0 0 0 0 0 0 0 0 0 0 0 0
0 0 0 0 0 0 0 0 0 0 0 0 0 0 0 0 0 0 0 0 0 0 0 0 0 0 0 0 0 0 0 0 0 0 0 0 0 0
0 0 0 0 0 0 0 0 0 0 0 0 0 0 0 0 0 0 0 0 0 0 0 0 0 0 0 0 0 0 0 0 0 0 0 0 0 0
0 0 0 0 0 0 0 0 0 0 0 0 0 0 0 0 0 0 0 0 0 0 0 0 0 0 0 0 0 0 0 0 0 0 0 0 0 0
0 0 0 0 0 0 0 0 0 0 0 0 0 0 0 0 0 0 0 0 0 0 0 0 0 0 0 0 0 0 0 0 0 0 0 0 0 0
0 0 0 0 0 0 0 0 0 0 0 0 0 0 0 0 0 0 0 0 0 0 0 0 0 0 0 0 0 0 0 0 0 0 0 0 0 0
Wind_Speed
1 1 1 1 1 1 1 2 3 1 1 2 1 2 1 1 1 1 1 3 5 6 6 7 7 7 8 8 9 10 10 11 11 12 13 15 16 16
0 1 1 1 1 1 1 1 2 2 1 1 1 1 1 1 1 1 1 3 4 5 6 7 7 8 8 9 9 9 10 10 10 11 12 13 14 14
1 1 0 1 1 1 1 1 1 2 1 1 1 1 1 1 1 1 1 1 2 5 6 7 8 8 9 9 9 9 10 10 10 11 12 13 14 14
1 1 0 1 1 1 1 1 1 1 2 0 2 2 1 1 1 1 1 1 1 5 6 7 7 8 8 9 9 9 10 10 10 11 12 13 14 14
2 2 2 2 1 0 1 1 0 1 1 1 1 1 1 1 2 2 2 1 2 3 4 5 5 6 7 8 8 9 9 10 10 10 11 12 12 13
2 3 3 3 3 2 1 1 1 1 1 1 0 1 1 2 1 1 2 2 2 2 2 2 3 4 6 7 7 8 9 9 9 10 10 11 11 12
2 2 3 4 6 4 3 2 2 1 1 1 0 1 1 1 1 1 1 2 2 1 2 2 2 2 3 5 6 8 8 9 9 9 10 10 11 12
2 2 3 4 5 5 4 5 5 3 2 1 1 1 2 1 1 0 1 1 2 2 1 3 1 2 3 3 6 8 8 8 8 9 9 10 11 11
3 3 2 2 3 2 3 3 3 4 5 4 3 3 2 2 1 1 1 1 3 3 1 3 2 3 3 4 7 8 8 8 8 8 9 9 10 11
4 4 3 3 3 4 3 2 1 2 3 3 4 4 3 3 3 3 2 2 3 3 2 2 2 2 3 3 6 6 6 6 6 7 8 8 9 10
3 3 4 4 5 6 4 3 1 2 2 2 3 3 3 2 3 1 0 0 2 2 1 1 2 2 3 3 3 4 4 5 6 7 8 8 9 8
1 2 3 4 4 5 5 4 3 2 0 1 1 2 2 2 1 2 2 1 1 2 2 1 1 2 3 3 2 2 3 4 6 7 7 8 7 4
2 2 2 3 4 4 5 4 4 3 1 1 1 1 2 2 2 1 1 2 2 2 2 1 1 1 1 3 3 2 2 2 3 3 5 7 7 5
3 2 2 3 3 4 4 4 5 4 2 2 1 1 1 1 2 1 1 0 1 2 2 1 1 1 1 2 3 3 3 2 2 2 3 5 6 7
3 4 4 3 3 3 4 5 4 3 2 2 1 0 0 1 1 2 2 2 2 2 2 1 1 1 1 2 3 3 3 3 2 3 3 3 3 3
2 3 4 4 3 3 3 3 2 2 3 2 1 0 1 1 2 2 2 2 2 3 4 3 2 1 1 2 2 3 2 3 4 4 4 3 3 3
4 3 2 2 2 2 2 2 2 2 2 2 2 2 2 2 2 2 2 2 2 2 3 4 4 2 2 2 2 2 2 2 3 4 4 4 4 3
6 4 3 3 4 3 3 2 2 2 2 2 2 2 2 2 2 2 2 2 2 2 2 3 4 4 4 3 1 1 2 3 3 4 3 3 5 4
5 4 4 4 4 4 3 3 2 2 2 3 3 2 2 2 2 2 2 2 2 2 2 2 3 2 3 4 5 2 2 4 4 4 3 3 5 6
4 5 5 5 4 4 4 3 3 3 2 2 2 2 2 2 2 2 1 1 1 1 2 2 2 2 1 3 4 4 4 3 3 4 4 4 5 7
5 5 5 5 4 4 4 4 4 3 3 3 2 2 2 2 2 1 1 2 2 1 2 3 3 6 3 2 3 4 4 5 6 5 5 5 6 5
6 6 5 5 5 5 5 4 4 3 3 3 3 2 2 2 2 2 1 1 1 1 2 3 4 3 2 2 4 6 6 6 6 9 8 7 5 5
7 6 6 6 5 5 5 5 5 4 4 3 3 3 2 2 1 1 0 0 1 2 2 3 3 2 2 3 4 5 7 7 5 5 5 8 11 13
Wind_Direction
58 60 69 28 52 78 116 137 140 115 341 316 334 330 317 215 199 192 199 216 221 229 230 230 226 227 232 233 235 236 236 234 232 230 227 227 228 229
111 83 50 31 42 55 81 100 127 144 174 288 287 301 313 291 186 211 240 253 246 246 241 239 231 231 234 236 238 240 237 234 233 234 233 230 230 231
40 106 98 85 78 57 70 81 88 127 151 298 313 334 8 4 341 317 269 247 262 261 256 246 238 234 235 237 239 240 238 234 232 235 237 236 234 233
194 137 223 133 92 68 78 80 89 138 147 199 331 349 355 321 330 335 321 296 273 268 263 256 248 241 240 241 241 242 241 237 235 236 239 240 240 239
201 189 199 150 146 155 110 95 84 97 127 143 303 327 327 345 13 0 358 340 303 288 275 265 257 251 247 246 244 243 243 241 238 238 240 241 242 243
214 208 200 186 186 182 162 160 134 97 94 107 1 336 334 335 32 9 347 336 316 315 313 298 286 270 261 256 250 246 244 242 241 240 243 244 243 244
231 232 225 213 203 191 177 177 150 128 103 100 12 355 336 353 348 325 319 317 309 313 329 312 300 279 268 264 258 252 247 246 245 244 243 244 245 245
230 250 249 235 227 213 200 186 174 165 167 168 191 221 261 248 251 298 329 359 316 312 343 299 273 267 262 249 250 252 248 246 247 249 249 248 247 248
218 228 240 224 212 207 227 217 214 206 191 177 189 217 225 223 201 231 228 227 249 270 324 289 287 273 270 266 258 256 255 253 252 256 257 254 252 252
220 214 215 231 214 190 186 194 245 264 234 200 201 221 229 225 202 201 216 257 278 276 203 255 288 280 286 280 267 258 254 257 262 264 265 265 262 259
237 213 203 211 218 188 165 175 208 293 289 224 208 227 248 240 193 153 165 358 311 303 271 224 294 306 297 290 295 288 280 277 277 275 274 273 270 268
238 223 211 203 202 178 167 171 186 230 286 27 22 357 352 353 348 184 186 184 242 292 308 319 303 334 321 308 312 315 297 286 289 286 283 281 280 270
200 215 222 194 183 176 168 176 195 183 156 122 52 19 14 8 358 354 177 176 191 251 286 311 294 301 276 302 311 305 310 308 304 293 291 292 287 266
194 204 208 192 177 170 164 167 161 137 117 106 87 47 19 351 336 347 20 92 201 231 282 274 251 264 280 290 296 311 314 308 309 305 306 305 295 281
190 190 187 180 152 137 133 135 129 123 121 116 123 142 295 316 345 2 9 10 6 359 1 356 288 274 245 259 285 304 318 325 339 333 325 318 306 303
167 164 148 129 116 110 101 97 102 128 136 136 137 92 21 31 28 19 19 11 20 350 347 354 344 310 273 270 269 291 304 310 328 325 316 310 306 298
144 121 116 119 120 104 90 88 88 94 100 100 101 87 58 50 30 22 37 44 45 351 337 337 337 331 279 265 297 303 313 316 312 319 322 316 304 302
144 144 153 152 153 152 142 124 108 113 120 118 108 102 90 74 51 33 42 57 49 3 343 336 346 356 358 346 316 310 329 316 313 315 314 308 302 303
148 160 164 167 163 158 154 147 146 141 126 118 115 108 100 86 74 52 37 35 24 360 341 343 0 17 360 327 315 338 331 317 320 318 306 292 289 297
163 167 170 169 162 157 155 149 140 129 118 116 112 105 100 95 83 63 43 29 7 354 349 351 356 348 297 284 292 305 320 313 314 311 304 295 283 285
172 168 166 162 158 154 150 144 140 135 129 122 114 106 100 97 88 69 45 19 17 355 338 320 300 311 295 319 313 307 307 309 305 298 305 309 309 308
170 168 165 161 156 153 148 143 136 132 130 123 121 114 108 105 104 83 56 21 346 318 307 305 317 334 352 325 303 300 303 307 305 305 298 290 295 300
171 166 161 159 155 150 147 144 141 139 138 135 131 126 119 113 108 100 66 8 332 325 322 320 328 332 317 302 298 299 304 309 311 313 301 296 293 288